{"data":{"norad_id":52717,"intl_designator":"2022-056B","name":"2022-056B","alt_names":[],"object_type":"PAYLOAD","status":"ACTIVE","operator":null,"country":"PRC","launch_date":"2022-05-20","launch_site_code":"JSC","launch_vehicle":null,"mission":null,"orbit_class":"UNKNOWN","rcs_meters":null,"size_class":null,"mass_kg":null,"dimensions":null,"purposes":[],"wikipedia_slug":null,"has_3d_model":false,"image_url":null,"decayed_at":null,"tle_current":{"epoch":"2026-05-25T04:14:44.060640Z","epoch_age_seconds":56850,"freshness":"FRESH","line1":"1 52717U 22056B   26145.17689885  .00000249  00000+0  49997-3 0  9992","line2":"2 52717  86.0058 107.8846 0046429 101.8370 258.7979 13.29587663195259","mean_motion":13.29587663,"eccentricity":0.0046429,"inclination_deg":86.0058,"raan_deg":107.8846,"arg_perigee_deg":101.837,"mean_anomaly_deg":258.7979,"bstar":0.00049997,"rev_number":19525,"period_min":108.30425402345,"perigee_km":1113.3743560267,"apogee_km":1183.2635205786,"semimajor_km":7526.4559383027,"source":"CELESTRAK","updated_at":"2026-05-25T13:37:57.884706Z"}}}